« Back
NWS Peachtree City, Ga » Text Product » GA Regional Weather Roundup


Printer-friendly Version
Current Version              Previous Versions:   1  2  3  4  5  6  7  8  9  

Regional Weather Roundup

501
ASUS42 KFFC 280403
RWRGA
WEATHER ROUNDUP FOR GEORGIA
NATIONAL WEATHER SERVICE PEACHTREE CITY GA
1200 AM EDT TUE JUN 28 2016

NOTE: "FAIR" INDICATES FEW OR NO CLOUDS BELOW 12,000 FEET WITH NO
SIGNIFICANT WEATHER AND/OR OBSTRUCTIONS TO VISIBILITY.

* = USE WITH CAUTION. THE STATIONS MARKED WITH AN ASTERISK MAY NOT
REPORT WEATHER SUCH AS PRECIPITATION, FOG, OR THUNDER AND ARE NOT
QUALITY CONTROLLED BY NWS.

THE REMARK "TC" DENOTES TEMPERATURE READING IN DEGREES CELSIUS.

GAZ001>058-280500-
NORTH GEORGIA

CITY           SKY/WX    TMP DP  RH WIND       PRES   REMARKS
ATLANTA        MOCLDY    78  68  71 E8        30.04F
ATHENS         LGT RAIN  72  72 100 SW5       30.04F
CHAMBLEE       CLOUDY    76  70  82 VRB5      30.05S
PEACHTREE CITY PTCLDY    75  71  87 CALM      30.04F
ROME           CLOUDY    74  72  93 CALM      30.04R
WEST ATLANTA   PTCLDY    74  71  91 CALM      30.04S
GAINESVILLE    CLOUDY    71  69  93 S3        30.08F
CARTERSVILLE   CLOUDY    73  71  93 CALM      30.05R


CITY           SKY/WX    TMP DP  RH WIND       PRES   REMARKS
DALTON*        CLOUDY    72  72 100 CALM      30.04R
MARIETTA       PTCLDY    76  70  83 E6        30.04F
CANTON*        CLOUDY    72  68  88 CALM      30.07F
$$

GAZ059>098-102>109-280500-
CENTRAL GEORGIA

CITY           SKY/WX    TMP DP  RH WIND       PRES   REMARKS
AUGUSTA-BUSH   CLOUDY    79  73  82 NW6       30.03S
AUGUSTA-DANIEL LGT RAIN  78  74  87 VRB3      30.05S
COLUMBUS       CLEAR     81  67  62 N5        30.01S
MACON          CLEAR     81  69  67 W5        30.00F
ROBINS AFB     CLEAR     85  70  60 SW7       29.99F HX  90


CITY           SKY/WX    TMP DP  RH WIND       PRES   REMARKS
LAGRANGE*      CLEAR     76  74  93 CALM      30.04R
SYLVANIA*      MOCLDY    80  74  81 CALM      30.04S
MILLEDGEVILLE* CLEAR     79  73  83 CALM      30.03S
$$

GAZ099>101-110>166-280500-
SOUTH GEORGIA

CITY           SKY/WX    TMP DP  RH WIND       PRES   REMARKS
SAVANNAH       PTCLDY    78  72  81 E5        30.03F
VALDOSTA       CLOUDY    78  73  84 S3        30.02R
ALMA           MOCLDY    79  73  82 SW5       30.03R
ST SIMONS      CLEAR     77  74  90 CALM      30.03R
FT STEWART     PTCLDY    75  72  91 SE3       30.00F
ALBANY         CLEAR     78  72  81 CALM      30.03S
HUNTER AFB     PTCLDY    76  75  96 CALM      30.00F
MOODY AFB      CLOUDY    78  74  89 W2        30.02S
BRUNSWICK      CLEAR     73  73 100 CALM      30.04R


CITY           SKY/WX    TMP DP  RH WIND       PRES   REMARKS
BAINBRIDGE*    CLEAR     79  72  78 CALM      30.01F
MOULTRIE*      CLEAR     79  73  83 CALM      30.03S
VIDALIA*       PTCLDY    81  72  74 S5        30.02S
WAYCROSS*      PTCLDY    81  75  81 S3        30.03S
DOUGLAS*       MOCLDY    79  72  78 CALM      30.04F
$$




USA.gov is the U.S. government's official web portal to all federal, state and local government web resources and services.